Tracking 31027 objects as of 19-Jul-2025
HD Live streaming from Space Station
objects crossing your sky now

STARLINK-32255

Track STARLINK-32255 now!
10-day predictions
STARLINK-32255 is classified as:


NORAD ID: 60417
Int'l Code: 2024-141V
Perigee: 481.6 km
Apogee: 483.2 km
Inclination: 53.2 °
Period: 94.1 minutes
Semi major axis: 6853 km
RCS: Unknown
Launch date: August 10, 2024
Source: United States (US)
Launch site: AIR FORCE EASTERN TEST RANGE (AFETR)
Your satellite tracking list
Your tracking list is empty




NASA's NSSDC Master Catalog

Two Line Element Set (TLE):
1 60417U 24141V   25199.42551407 -.00000013  00000-0  11705-4 0  9997
2 60417  53.1596 250.7260 0001198  77.3409 282.7726 15.30190107 53717
Source of the keplerian elements: AFSPC